THORAD AGENA D DEB, 19290

Orbit data source: Space-Track

THORAD AGENA D DEB, 19290 is space debris in SSO originally from a launch on Wed, 08 Apr 1970 UTC launched from the Air Force Western Test Range (AFWTR). Debris objects in space refer to the collection of defunct objects orbiting the Earth. Examples of debris include non-operational satellites, rocket bodies, and fragments generated from explosions, collisions, or faulty payload assembly.

Loading next visibility...
Identifier
19290, 1970-025PV
Orbit
SSO
Country
Flag of USUS
Related business
Manufacturer
Unknown
Mission
Spacecraft
Bus & Motor
Unknown
Mass
Unknown
Launch date (UTC)
1970-04-08 (56 years ago)
Launch vehicle
Unknown
Launch site
Air Force Western Test Range (AFWTR)
Object type
Payload
Rocket body
Debris
Shape & HBR
Unknown shape, 0.1 m
Radar Cross Section
Small (<0.1 m²)

Expand to show TLE details & history
Last TLE update: 10 hours ago

TLE from 10 hours ago
0 THORAD AGENA D DEB
1 19290U 70025PV  26122.81200737  .00000306  00000-0  47676-3 0  9998
2 19290  99.8940  73.2415 0027147 346.3141  42.3259 13.59136530 32340
Epoch: 2026-05-02T19:29Z
TLE epoch observation values (Epoch: 2026-05-02T19:29:17.436Z)
Latitude
28.42611°
Longitude
-85.19504°
Altitude
1,027.366 km
Speed
7.348 km/s
True Right ascension
04h 31m 24s
True Declination
28° 17' 15"
Sunlit
Object was in daylight at epoch
Visualization orbit readout
Latitude
Unknown
Longitude
Unknown
Altitude
Unknown
Speed
Unknown
Apparent Right ascension
Unknown
Apparent Declination
Unknown
Sunlit
N/A
Visualization observer readout
Local Sidereal Time
13:03:34
Azimuth
Unknown
Elevation
Unknown
Doppler factor
Unknown
Orbital elements
Apogee altitude
1,056.259 km
Perigee altitude
1,016.004 km
Semi-major axis
7,414.268 km
Eccentricity
0.00271
Inclination
99.894°
RAAN
73.2415°
Arg. of periapsis
346.3141°
True anomaly
42.53589°
Mean anomaly
42.3259°
Eccentric anomaly
42.43084°
Mean motion
3.3997 °/min
Orbital period
105.89 mins
BSTAR
0.00047676
Loading maneuver chart data...
Computing Atmospheric mass density...

Documentation

Showing up to 5 results
|